This is the latest recevied weather packets stored in our database for station/object KD0SBN-3. If no packets are shown the sender has not sent any weather packets the latest 10 day(s).
| Time | Temp. | Humidity | Pressure | Rain* | Wind** | Luminosity | Snow |
|---|---|---|---|---|---|---|---|
| 1777898973 | 8.33° C | 47% | 1022 hPa | 0 mm | - | 37 W/m² | - |
| 1777898670 | 7.78° C | 50% | 1021.9 hPa | 0 mm | - | 29 W/m² | - |
| 1777898366 | 8.33° C | 48% | 1022.1 hPa | 0 mm | - | 23 W/m² | - |
| 1777898065 | 8.33° C | 47% | 1022.3 hPa | 0 mm | - | 19 W/m² | - |
| 1777897760 | 8.33° C | 47% | 1022.3 hPa | 0 mm | - | 17 W/m² | - |
| 1777897457 | 7.78° C | 46% | 1022.1 hPa | 0 mm | - | 15 W/m² | - |
| 1777897153 | 7.78° C | 49% | 1022.4 hPa | 0 mm | - | 10 W/m² | - |
| 1777896849 | 7.78° C | 50% | 1022.1 hPa | 0 mm | - | 7 W/m² | - |
| 1777896547 | 7.78° C | 49% | 1022.1 hPa | 0 mm | - | 5 W/m² | - |
| 1777896244 | 7.22° C | 50% | 1022.3 hPa | 0 mm | - | 3 W/m² | - |
| 1777895942 | 7.22° C | 51% | 1022 hPa | 0 mm | - | 1 W/m² | - |
| 1777895639 | 7.22° C | 49% | 1022.1 hPa | 0 mm | - | 1 W/m² | - |
| 1777895336 | 7.22° C | 50% | 1022.1 hPa | 0 mm | - | 0 W/m² | - |
| 1777895034 | 6.67° C | 51% | 1022 hPa | 0 mm | - | 0 W/m² | - |
| 1777894731 | 6.67° C | 50% | 1022.4 hPa | 0 mm | - | 0 W/m² | - |
| 1777894428 | 6.67° C | 50% | 1022.3 hPa | 0 mm | - | 0 W/m² | - |
| 1777894126 | 7.22° C | 49% | 1022.9 hPa | 0 mm | - | 0 W/m² | - |
| 1777893822 | 6.67° C | 49% | 1023 hPa | 0 mm | - | 0 W/m² | - |
| 1777893519 | 6.67° C | 50% | 1022.8 hPa | 0 mm | - | 0 W/m² | - |
| 1777893215 | 6.67° C | 50% | 1022.4 hPa | 0 mm | - | 0 W/m² | - |
| 1777892912 | 6.67° C | 52% | 1022.3 hPa | 0 mm | - | 0 W/m² | - |
| 1777892608 | 6.67° C | 51% | 1022.1 hPa | 0 mm | - | 0 W/m² | - |
| 1777892304 | 6.67° C | 52% | 1022.1 hPa | 0 mm | - | 0 W/m² | - |
| 1777892000 | 6.67° C | 51% | 1022.5 hPa | 0 mm | - | 0 W/m² | - |
| 1777891698 | 7.22° C | 49% | 1022.6 hPa | 0 mm | - | 0 W/m² | - |
* Rain latest hour (hover to see other rain measurements)
** Current wind speed in m/s (hover to see current wind gust speed)